Location: Igri�s
(42.2144°N, 0.4320°W)
Time: 16:16:44
(UTC+00:00)

Cosmos 2297 Rocket - Pass Details

Date: 13 August 2020
Orbit: 838 x 845 km, 71.0° (Epoch: 18 September)

Event Time Altitude Azimuth Distance (km) Brightness Sun altitude
Exits shadow 23:02:23 13° 64° (ENE) 2,235 4.4 -31.6°
Drops below altitude 10° 23:03:19 10° 56° (NE) 2,461 4.8 -31.7°
Sets 23:06:25 0° 40° (NE) 3,402 5.8 -31.8°
